Weather in Billund

Denmark     55°43′57″N   9°06′33″E
temp.,
°C
wind,
m/s
gust,
m/s
humid.,
%
clouds,
%
prec.,
mm/h
press.,
hPa
HPBL,
m
10 may, mon
mon1023:00+14se6129681 2.2 1000271
02:00+14s4897100 2.6 1000157
05:00+14sse2296100 0.1 100025
08:00+16sse3696100 1.4 1000238
11:00+20s7147973 0.8 10001283
14:00+15sw101683100 0.9 1003999
17:00+15sw7107570 0.0 1006711
20:00+12sw51184100 0.0 1009615
11 may, tue
tue1123:00+10s3986100 0.0 1010284
02:00+10ssw3682100 0.0 1011149
05:00+10sse2386100 0.1 101156
08:00+10ese3595100 0.6 1012198
11:00+13e4487100 1.3 1012522
14:00+11ne4889100 2.7 1011495
17:00+10ne51286100 0.1 1011464
20:00+9n51190100 1.1 1010469
12 may, wed
wed1223:00+8nnw51095100 0.5 1010426
02:00+8nnw51197100 0.8 1009439
05:00+8nw51097100 0.1 1008485
08:00+9nw4996100 0.1 1008514
11:00+10nw6893100 0.0 1009601
14:00+11nw5787100 0.1 1010657
17:00+12wnw567995 0.1 1011785
20:00+11wnw4682100 0.1 1011365
13 may, thu
thu1323:00+8wnw369353 0.0 1012133
02:00+6nw339583 0.0 101256
05:00+7nw3590100 0.0 1011157
08:00+9nnw3581100 0.0 1010231
11:00+13nnw4558100 0.0 1009698
14:00+15nnw4552100 0.0 10081011
17:00+13wnw456895 0.0 1008376
20:00+10wnw468495 0.0 1007231
14 may, fri
fri1423:00+8wnw368932 0.0 1007201
02:00+7wnw3694100 0.0 1007164
05:00+8wnw4794100 0.0 1006237
08:00+9wnw4692100 0.0 1006309
11:00+10wnw4688100 0.0 1006393
14:00+9wnw5795100 0.6 1006380
17:00+8w4898100 4.3 1007382
20:00+8w4897100 6.6 1007446